Location: Göttingen
(51.5413°N, 9.9158°E)
Time: 03:39:00
(UTC+02:00)

Envisat - Pass Details

Date: 25 January 2022
Orbit: 764 x 765 km, 98.2° (Epoch: 28 May)

Event Time Altitude Azimuth Distance (km) Brightness Sun altitude
Rises 04:15:10 0° 23° (NNE) 3,243 6.7 -35.9°
Reaches altitude 10° 04:17:55 10° 38° (NE) 2,311 6.0 -35.5°
Maximum altitude 04:22:00 24° 91° (E) 1,557 5.1 -34.9°
Drops below altitude 10° 04:26:03 10° 144° (SE) 2,298 5.7 -34.3°
Sets 04:28:46 0° 159° (SSE) 3,219 6.3 -33.9°
